Location: Bh?mavarapp?du
(16.7041°N, 80.6518°E)
Time: 01:46:00
(UTC+00:00)

Cosmos 1727 Rocket - Pass Details

Date: 21 April 2021
Orbit: 962 x 995 km, 82.9° (Epoch: 07 May)

Event Time Altitude Azimuth Distance (km) Brightness Sun altitude
Exits shadow 22:13:10 53° 327° (NNW) 1,178 4.3 -29.1°
Drops below altitude 10° 22:18:04 10° 356° (N) 2,719 6.5 -28.0°
Sets 22:20:37 0° 359° (N) 3,672 7.3 -27.4°
